Location: ?ern� Novina
(50.6762°N, 14.8696°E)
Time: 02:13:00
(UTC+00:00)

Cosmos 2360 Rocket - Pass Details

Date: 03 March 2021
Orbit: 832 x 846 km, 71.0° (Epoch: 13 April)

Event Time Altitude Azimuth Distance (km) Brightness Sun altitude
Rises 18:38:15 0° 209° (SSW) 3,379 5.5 -18.6°
Reaches altitude 10° 18:40:41 10° 210° (SSW) 2,450 4.8 -18.9°
Maximum altitude 18:46:19 85° 298° (WNW) 852 2.2 -19.8°
Drops below altitude 10° 18:52:02 10° 29° (NNE) 2,475 4.5 -20.7°
Sets 18:54:29 0° 30° (NNE) 3,416 5.2 -21.0°
